This is the latest recevied weather packets stored in our database for station/object I1SXT-13. If no packets are shown the sender has not sent any weather packets the latest 10 day(s).
| Time | Temp. | Humidity | Pressure | Rain* | Wind** | Luminosity | Snow |
|---|---|---|---|---|---|---|---|
| 1778060066 | 17.22° C | 91% | 1009.3 hPa | 33.02 mm | - | - | - |
| 1778059769 | 17.22° C | 91% | 1009.8 hPa | 33.02 mm | - | - | - |
| 1778059168 | 17.22° C | 92% | 1009.9 hPa | 32.77 mm | - | - | - |
| 1778058863 | 17.22° C | 92% | 1009.7 hPa | 32 mm | - | - | - |
| 1778058566 | 17.22° C | 92% | 1008.9 hPa | 30.48 mm | - | - | - |
| 1778058268 | 17.22° C | 93% | 1009.9 hPa | 28.45 mm | - | - | - |
| 1778057970 | 17.22° C | 93% | 1009.3 hPa | 26.16 mm | - | - | - |
| 1778057367 | 17.22° C | 93% | 1009.5 hPa | 21.08 mm | - | - | - |
| 1778057069 | 17.22° C | 94% | 1009.9 hPa | 18.54 mm | - | - | - |
| 1778056764 | 16.67° C | 94% | 1009.3 hPa | 15.75 mm | - | - | - |
| 1778056466 | 16.11° C | 93% | 1009.2 hPa | 12.95 mm | - | - | - |
| 1778055564 | 17.22° C | 92% | 1009 hPa | 2.03 mm | - | - | - |
| 1778055267 | 17.22° C | 93% | 1009.4 hPa | 2.03 mm | - | - | - |
| 1778054969 | 16.67° C | 92% | 1008.1 hPa | 0 mm | - | - | - |
| 1778054665 | 17.22° C | 92% | 1008.1 hPa | 0 mm | - | - | - |
| 1778054367 | 17.22° C | 92% | 1007.4 hPa | 1.02 mm | - | - | - |
| 1778054070 | 17.22° C | 93% | 1008.3 hPa | 1.02 mm | - | - | - |
| 1778053766 | 17.22° C | 92% | 1008.7 hPa | 1.02 mm | - | - | - |
| 1778053469 | 16.67° C | 91% | 1008.7 hPa | 1.02 mm | - | - | - |
| 1778053165 | 16.67° C | 92% | 1008.4 hPa | 1.02 mm | - | - | - |
| 1778052868 | 16.67° C | 93% | 1008.2 hPa | 1.02 mm | - | - | - |
| 1778052563 | 17.22° C | 94% | 1008.5 hPa | 1.02 mm | - | - | - |
| 1778052266 | 16.67° C | 94% | 1008.1 hPa | 1.02 mm | - | - | - |
| 1778051969 | 16.67° C | 95% | 1008.9 hPa | 1.02 mm | - | - | - |
| 1778051665 | 16.67° C | 95% | 1008.5 hPa | 1.02 mm | - | - | - |
* Rain since midnight (hover to see other rain measurements)
** Current wind speed in m/s (hover to see current wind gust speed)